North Bend, OR

6:14 PM PDT on July 23, 2017 (GMT -0700)
North Bend Municipal

Weather History for KOTH - June, 2013

Change the Weather History Date:

Sunday, June 2, 2013

  Actual Average Record
Temperature  
Mean Temperature 58 °F 55 °F  
Max Temperature 61 °F 60 °F 88 °F (1950)
Min Temperature 54 °F 49 °F 36 °F (1929)
Degree Days  
Heating Degree Days 7 10  
Month to date heating degree days 16 20  
Since 1 June heating degree days 16 20  
Since 1 July heating degree days 4284 4580  
Cooling Degree Days 0 0  
Month to date cooling degree days 0 0  
Year to date cooling degree days 4 0  
Since 1 June cooling degree days 0 0  
Growing Degree Days 6 (Base 50)    
Moisture  
Dew Point 54 °F    
Average Humidity 91    
Maximum Humidity 100    
Minimum Humidity 78    
Precipitation  
Precipitation 0.03 in 0.11 in 1.40 in (1947)
Month to date precipitation 0.04 0.21  
Year to date precipitation 16.79 34.38  
Sea Level Pressure  
Sea Level Pressure 30.10 in    
Wind  
Wind Speed 17 mph (North)    
Max Wind Speed 27 mph    
Max Gust Speed 37 mph    
Visibility 8 miles    
Events      
T = Trace of Precipitation, MM = Missing Value Source: NWS Daily Summary

Daily Weather History Graph

Daily Weather History Graph

Search for Another Location

Airport or City:

Trip Planner

Search our weather history database for the weather conditions in past years. The results will help you decide how hot, cold, wet, or windy it might be!

Date:

Astronomy

Jun. 02, 2013 Rise Set
Actual Time 5:38 AM PDT 8:52 PM PDT
Civil Twilight 5:03 AM PDT 9:27 PM PDT
Nautical Twilight 4:18 AM PDT 10:12 PM PDT
Astronomical Twilight 3:23 AM PDT 11:07 PM PDT
Moon 2:17 AM PDT (6/2) 3:20 PM PDT (6/2)
Length of Visible Light 16h 23m
Length of Day
15h 13m
Waning Crescent, 30% of the Moon is Illuminated
Jun 2
Waning Crescent
Jun 8
New
Jun 16
First Quarter
Jun 23
Full
Jun 29
Last Quarter

Hourly Weather History & Observations

Time (PDT) Temp. Dew Point Humidity Pressure Visibility Wind Dir Wind Speed Gust Speed Precip Events Conditions
12:15 AM 55.4 °F 55.4 °F 100% 30.11 in 2.5 mi NNW 5.8 mph - N/A   Overcast
12:35 AM 55.4 °F 55.4 °F 100% 30.11 in 2.0 mi NNW 4.6 mph - N/A   Overcast
12:55 AM 55.4 °F 53.6 °F 94% 30.10 in 2.5 mi NW 5.8 mph - 0.01 in   Overcast
1:15 AM 55.4 °F 55.4 °F 100% 30.10 in 6.0 mi East 3.5 mph - N/A   Overcast
1:35 AM 55.4 °F 55.4 °F 100% 30.10 in 2.5 mi Calm Calm - N/A   Overcast
1:55 AM 55.4 °F 55.4 °F 100% 30.10 in 5.0 mi NNW 6.9 mph - 0.01 in   Overcast
2:15 AM 55.4 °F 55.4 °F 100% 30.10 in 3.0 mi NNW 9.2 mph - N/A   Overcast
2:35 AM 55.4 °F 55.4 °F 100% 30.10 in 8.0 mi North 9.2 mph - N/A   Overcast
2:55 AM 55.4 °F 55.4 °F 100% 30.09 in 10.0 mi North 9.2 mph - N/A   Overcast
3:15 AM 55.4 °F 55.4 °F 100% 30.09 in 10.0 mi NNW 10.4 mph - N/A   Overcast
3:35 AM 55.4 °F 55.4 °F 100% 30.09 in 10.0 mi NNW 10.4 mph - N/A   Overcast
3:55 AM 55.4 °F 55.4 °F 100% 30.08 in 4.0 mi NNW 9.2 mph - 0.01 in   Overcast
4:15 AM 53.6 °F 53.6 °F 100% 30.08 in 6.0 mi NNW 9.2 mph - N/A   Overcast
4:35 AM 53.6 °F 53.6 °F 100% 30.08 in 3.0 mi North 11.5 mph - N/A   Overcast
4:55 AM 53.6 °F 53.6 °F 100% 30.08 in 5.0 mi North 11.5 mph - N/A   Overcast
5:15 AM 53.6 °F 51.8 °F 94% 30.09 in 3.0 mi North 10.4 mph - N/A   Overcast
5:35 AM 53.6 °F 51.8 °F 94% 30.09 in 5.0 mi North 13.8 mph - N/A   Overcast
5:55 AM 53.6 °F 53.6 °F 100% 30.09 in 8.0 mi North 10.4 mph - N/A   Overcast
6:15 AM 53.6 °F 53.6 °F 100% 30.09 in 6.0 mi North 10.4 mph - N/A   Overcast
6:35 AM 53.6 °F 53.6 °F 100% 30.09 in 10.0 mi North 8.1 mph - N/A   Overcast
6:55 AM 55.4 °F 53.6 °F 94% 30.10 in 5.0 mi North 10.4 mph - N/A   Overcast
7:15 AM 53.6 °F 51.8 °F 94% 30.10 in 3.0 mi North 11.5 mph 16.1 mph N/A   Overcast
7:35 AM 53.6 °F 53.6 °F 100% 30.10 in 3.0 mi North 10.4 mph - N/A   Overcast
7:55 AM 55.4 °F 53.6 °F 94% 30.10 in 2.5 mi North 11.5 mph - N/A   Overcast
8:15 AM 55.4 °F 53.6 °F 94% 30.10 in 2.0 mi North 13.8 mph 17.3 mph 0.01 in   Overcast
8:35 AM 55.4 °F 55.4 °F 100% 30.10 in 2.0 mi North 10.4 mph - 0.01 in   Overcast
8:55 AM 55.4 °F 55.4 °F 100% 30.10 in 2.0 mi North 10.4 mph - 0.01 in   Overcast
9:15 AM 55.4 °F 53.6 °F 94% 30.10 in 2.0 mi North 10.4 mph - N/A   Overcast
9:35 AM 55.4 °F 55.4 °F 100% 30.10 in 2.0 mi North 11.5 mph - N/A   Overcast
9:55 AM 57.2 °F 55.4 °F 94% 30.10 in 5.0 mi North 10.4 mph - N/A   Overcast
10:15 AM 55.4 °F 55.4 °F 100% 30.10 in 5.0 mi North 15.0 mph - N/A   Overcast
10:35 AM 57.2 °F 55.4 °F 94% 30.10 in 5.0 mi North 16.1 mph - N/A   Overcast
10:55 AM 57.2 °F 57.2 °F 100% 30.09 in 10.0 mi North 13.8 mph - N/A   Overcast
11:15 AM 57.2 °F 55.4 °F 94% 30.10 in 10.0 mi North 13.8 mph - N/A   Overcast
11:35 AM 59.0 °F 55.4 °F 88% 30.10 in 10.0 mi North 15.0 mph - N/A   Overcast
11:55 AM 60.8 °F 55.4 °F 82% 30.09 in 10.0 mi North 18.4 mph - N/A   Overcast
12:15 PM 59.0 °F 55.4 °F 88% 30.09 in 10.0 mi North 18.4 mph 25.3 mph N/A   Overcast
12:35 PM 60.8 °F 55.4 °F 82% 30.09 in 10.0 mi North 19.6 mph 26.5 mph N/A   Overcast
12:55 PM 59.0 °F 55.4 °F 88% 30.09 in 10.0 mi North 19.6 mph 25.3 mph N/A   Overcast
1:15 PM 60.8 °F 55.4 °F 82% 30.09 in 10.0 mi North 26.5 mph 31.1 mph N/A   Overcast
1:35 PM 60.8 °F 55.4 °F 82% 30.09 in 10.0 mi North 23.0 mph 31.1 mph N/A   Partly Cloudy
1:55 PM 60.8 °F 55.4 °F 82% 30.09 in 10.0 mi North 26.5 mph 32.2 mph N/A   Scattered Clouds
2:15 PM 60.8 °F 55.4 °F 82% 30.10 in 10.0 mi North 25.3 mph 31.1 mph N/A   Mostly Cloudy
2:35 PM 60.8 °F 55.4 °F 82% 30.10 in 10.0 mi North 27.6 mph 34.5 mph N/A   Scattered Clouds
2:55 PM 60.8 °F 55.4 °F 82% 30.10 in 10.0 mi North 25.3 mph 34.5 mph N/A   Scattered Clouds
3:15 PM 60.8 °F 53.6 °F 77% 30.10 in 10.0 mi North 25.3 mph 35.7 mph N/A   Mostly Cloudy
3:35 PM 60.8 °F 53.6 °F 77% 30.10 in 10.0 mi North 26.5 mph 34.5 mph N/A   Mostly Cloudy
3:55 PM 60.8 °F 53.6 °F 77% 30.11 in 10.0 mi North 26.5 mph 33.4 mph N/A   Mostly Cloudy
4:15 PM 59.0 °F 53.6 °F 82% 30.11 in 10.0 mi North 21.9 mph 36.8 mph N/A   Mostly Cloudy
4:35 PM 60.8 °F 53.6 °F 77% 30.10 in 10.0 mi North 23.0 mph 31.1 mph N/A   Mostly Cloudy
4:55 PM 60.8 °F 53.6 °F 77% 30.10 in 10.0 mi North 24.2 mph 31.1 mph N/A   Mostly Cloudy
5:15 PM 59.0 °F 53.6 °F 82% 30.09 in 10.0 mi North 28.8 mph 34.5 mph N/A   Mostly Cloudy
5:35 PM 59.0 °F 53.6 °F 82% 30.09 in 10.0 mi North 25.3 mph 33.4 mph N/A   Mostly Cloudy
5:55 PM 59.0 °F 53.6 °F 82% 30.09 in 10.0 mi North 23.0 mph 36.8 mph N/A   Mostly Cloudy
6:15 PM 57.2 °F 51.8 °F 82% 30.08 in 10.0 mi North 27.6 mph 35.7 mph N/A   Mostly Cloudy
6:35 PM 57.2 °F 51.8 °F 82% 30.08 in 10.0 mi North 23.0 mph 31.1 mph N/A   Mostly Cloudy
6:55 PM 57.2 °F 51.8 °F 82% 30.08 in 10.0 mi North 25.3 mph 33.4 mph N/A   Mostly Cloudy
7:15 PM 55.4 °F 51.8 °F 88% 30.09 in 10.0 mi North 23.0 mph 32.2 mph N/A   Overcast
7:35 PM 57.2 °F 51.8 °F 82% 30.08 in 10.0 mi North 21.9 mph 33.4 mph N/A   Overcast
7:55 PM 55.4 °F 51.8 °F 88% 30.09 in 10.0 mi North 23.0 mph 31.1 mph N/A   Overcast
8:15 PM 55.4 °F 51.8 °F 88% 30.09 in 10.0 mi North 21.9 mph 32.2 mph N/A   Overcast
8:35 PM 55.4 °F 51.8 °F 88% 30.09 in 10.0 mi North 25.3 mph 33.4 mph N/A   Overcast
8:55 PM 55.4 °F 51.8 °F 88% 30.09 in 10.0 mi North 26.5 mph 32.2 mph N/A   Overcast
9:15 PM 53.6 °F 51.8 °F 94% 30.10 in 10.0 mi North 24.2 mph 29.9 mph N/A   Scattered Clouds
9:35 PM 53.6 °F 51.8 °F 94% 30.10 in 10.0 mi North 23.0 mph 31.1 mph N/A   Mostly Cloudy
9:55 PM 53.6 °F 51.8 °F 94% 30.10 in 10.0 mi North 19.6 mph 28.8 mph N/A   Mostly Cloudy
10:15 PM 53.6 °F 51.8 °F 94% 30.10 in 10.0 mi North 21.9 mph 27.6 mph N/A   Partly Cloudy
10:35 PM 53.6 °F 51.8 °F 94% 30.10 in 10.0 mi North 19.6 mph 26.5 mph N/A   Partly Cloudy
10:55 PM 53.6 °F 51.8 °F 94% 30.10 in 10.0 mi North 17.3 mph 24.2 mph N/A   Partly Cloudy
11:15 PM 53.6 °F 51.8 °F 94% 30.10 in 10.0 mi North 15.0 mph - N/A   Scattered Clouds
11:35 PM 53.6 °F 51.8 °F 94% 30.10 in 10.0 mi North 13.8 mph - N/A   Partly Cloudy
11:55 PM 53.6 °F 51.8 °F 94% 30.10 in 10.0 mi NNE 12.7 mph - N/A   Scattered Clouds